#timestamp,LO_Frequency,Hit,StdDev 
1568361615.3,286047001.2,N
1568361635.1,286047000.6,N
1568361655.9,286047000.8,N
1568361675.7,286047000.8,N
1568361695.5,286046998.5,N
1568361715.4,286046998.7,N
1568361735.2,286046997.1,N
1568361755.1,286046997.4,N
1568361756.0,286046997.4,N
1568361775.8,286046997.4,N
1568361795.6,286046997.0,N
1568361815.5,286046996.6,N
1568361835.3,286046999.3,N
1568361855.1,286046999.1,N
1568361875.9,286046999.1,N
1568361895.7,286046996.9,N
1568361915.6,286046999.2,N
1568361935.4,286046997.1,N
1568361955.2,286046998.9,N
1568361975.1,286046998.6,N
1568361976.0,286046998.6,N
1568361995.8,286046998.3,N
1568362015.6,286046997.0,N
1568362035.5,286046997.6,N
1568362055.3,286046996.9,N
1568362075.2,286046998.4,N
1568362095.9,286046999.8,N
1568362115.7,286047000.2,N
1568362135.6,286047000.6,N
1568362155.4,286047001.2,N
1568362175.2,286047001.2,N
1568362195.1,286047000.3,N
1568362196.0,286047000.3,N
1568362215.8,286047000.0,N
1568362235.7,286047000.3,N
1568362255.5,286047002.7,N
1568362275.3,286047004.4,N
1568362295.2,286047001.0,N
1568362315.0,286047000.8,N
1568362315.9,286047000.8,N
1568362335.8,286046999.7,N
1568362355.6,286047000.3,N
1568362375.4,286047001.1,N
1568362395.3,286046998.4,N
1568362415.1,286046998.8,N
1568362435.9,286046997.5,N
1568362455.7,286046997.8,N
1568362475.5,286046995.2,N
1568362495.4,286046995.9,N
1568362515.2,286046997.5,N
1568362535.0,286046998.9,N
1568362535.9,286046998.9,N
1568362555.8,286046996.6,N
1568362575.6,286046998.1,N
1568362595.5,286046999.4,N
1568362615.3,286047000.9,N
1568362635.1,286047000.5,N
1568362655.9,286047002.7,N
1568362675.7,286047002.7,N
1568362695.5,286047001.2,N
1568362715.4,286046999.1,N
1568362735.2,286046999.2,N
1568362755.0,286046996.7,N
1568362756.0,286046996.7,N
1568362775.8,286046997.8,N
1568362795.6,286046997.1,N
1568362815.5,286046997.4,N
1568362835.3,286046995.3,N
1568362855.1,286046997.2,N
1568362875.9,286046999.4,N
1568362895.7,286046999.5,N
1568362915.5,286046996.5,N
1568362935.4,286046996.9,N
1568362955.2,286046996.5,N
1568362975.1,286046996.9,N
1568362976.0,286046996.9,N
1568362995.8,286046998.3,N
1568363015.6,286046997.4,N
1568363035.5,286046997.4,N
1568363055.3,286046997.5,N
1568363075.1,286046997.7,N
1568363095.9,286046996.5,N
1568363115.7,286046999.0,N
1568363135.6,286046998.9,N
1568363155.4,286046999.0,N
1568363175.2,286046999.0,N
1568363195.1,286046995.5,N
1568363196.0,286046995.5,N
1568363215.8,286046995.1,Y
1568363235.7,286046999.3,P
1568363255.5,286046999.4,N
1568363275.3,286047000.3,N
1568363295.2,286046999.8,N
1568363315.0,286047002.0,N
1568363315.9,286047002.0,N
1568363335.8,286047002.1,N
1568363355.6,286047001.7,N
1568363375.4,286047002.8,N
1568363395.3,286047001.0,N
1568363415.1,286046998.4,N
1568363435.8,286046998.4,N
1568363455.7,286046999.1,N
1568363475.5,286046999.0,N
1568363495.3,286047001.2,N
1568363515.2,286046998.6,N
1568363535.0,286046998.7,N
1568363535.9,286046998.7,N
1568363555.8,286046999.2,N
1568363575.6,286046998.8,N
1568363595.4,286047000.6,N
1568363615.3,286047011.9,Y
1568363635.1,286046999.1,P
1568363655.9,286046997.1,P
1568363675.7,286046995.3,P
1568363695.5,286046995.6,N
1568363715.4,286046993.8,Y
1568363735.2,286046996.5,P
1568363755.0,286046997.9,P
1568363755.9,286046997.9,P
1568363775.8,286046995.3,Y
1568363795.6,286047000.3,P
1568363815.5,286047002.3,N
1568363835.3,286047002.1,N
1568363855.1,286047004.4,N
1568363875.9,286047001.3,N
1568363895.7,286047005.9,N
1568363915.5,286047001.3,N
1568363935.4,286047001.7,N
1568363955.2,286047002.8,N
1568363975.1,286047002.2,N
1568363976.0,286047002.2,N
1568363995.8,286047001.0,N
1568364015.6,286047000.2,N
1568364035.5,286047000.7,N
1568364055.3,286047002.4,N
1568364075.1,286047002.2,N
1568364095.9,286047001.5,N
1568364115.7,286047002.6,N
1568364135.6,286047002.3,N
1568364155.4,286047001.9,N
1568364175.2,286047001.7,N
1568364195.1,286047000.1,N
1568364196.0,286047000.1,N
1568364215.8,286047001.0,N
1568364235.6,286047000.9,N
1568364255.5,286046998.4,N
1568364275.3,286046999.2,N
1568364295.2,286046999.1,N
1568364315.9,286046996.5,N
1568364335.7,286046999.5,N
1568364355.6,286046999.2,N
1568364375.4,286046999.2,N
1568364395.2,286046997.4,N
1568364415.1,286046994.9,N
1568364416.0,286046994.9,N
1568364435.8,286046999.5,N
1568364455.7,286046997.2,N
1568364475.5,286046998.2,N
1568364495.3,286046998.6,N
1568364515.2,286046999.0,N
1568364535.0,286047000.0,N
1568364535.9,286047000.0,N
1568364555.8,286047002.4,N
1568364575.6,286047000.4,N
1568364595.4,286047001.1,N
1568364615.3,286047000.9,N
1568364635.1,286047001.2,N
1568364655.8,286046999.1,N
1568364675.7,286046999.0,N
1568364695.5,286046997.2,N
1568364715.4,286046995.3,N
1568364735.2,286046995.3,N
1568364755.0,286046995.1,N
1568364755.9,286046995.1,N
1568364775.8,286046997.6,N
1568364795.6,286046995.0,N
1568364815.4,286046999.5,N
1568364835.3,286046998.3,N
1568364855.1,286046999.1,N
1568364875.9,286046998.5,N
1568364895.7,286046998.1,N
1568364915.5,286047001.1,N
1568364935.4,286046999.3,N
1568364955.2,286047001.1,N
1568364975.0,286046999.2,N
1568364975.9,286046999.2,N
1568364995.8,286046996.5,N
1568365015.6,286046998.0,N
1568365035.5,286046996.6,N
1568365055.3,286046997.2,N
1568365075.1,286046997.2,N
1568365095.9,286046997.1,N
1568365115.7,286046996.9,N
1568365135.5,286046997.7,N
1568365155.4,286046995.0,N
1568365175.2,286046997.2,N
1568365195.1,286046999.1,N
1568365196.0,286046999.1,N
